Hourly Weather Bolshie Shapy

Today, 17 June, Thursday

Time Temperature Precipitation Wind Pressure Humidity
00:00 +14°C° 0 mm 2 mps 749 mmHg 89%
01:00 +14°C° 0 mm 2 mps 750 mmHg 90%
02:00 +13°C° 0 mm 2 mps 750 mmHg 91%
03:00 +12°C° 0 mm 2 mps 750 mmHg 92%
04:00 +14°C° 0 mm 2 mps 751 mmHg 86%
05:00 +15°C° 0 mm 2 mps 751 mmHg 79%
06:00 +16°C° 0 mm 2 mps 751 mmHg 73%
07:00 +18°C° 0 mm 2 mps 752 mmHg 64%
08:00 +19°C° 0 mm 3 mps 752 mmHg 55%
09:00 +21°C° 0 mm 3 mps 752 mmHg 46%
10:00 +21°C° 0 mm 4 mps 752 mmHg 42%
11:00 +22°C° 0 mm 4 mps 752 mmHg 39%
12:00 +23°C° 0 mm 5 mps 753 mmHg 35%
13:00 +23°C° 0 mm 5 mps 753 mmHg 36%
14:00 +23°C° 0 mm 5 mps 753 mmHg 37%
15:00 +23°C° 0 mm 5 mps 753 mmHg 38%
16:00 +22°C° 0 mm 4 mps 753 mmHg 43%
17:00 +21°C° 0 mm 4 mps 754 mmHg 47%
18:00 +20°C° 0 mm 4 mps 754 mmHg 52%
19:00 +18°C° 0 mm 3 mps 755 mmHg 59%
20:00 +16°C° 0 mm 2 mps 755 mmHg 66%
21:00 +14°C° 0 mm 2 mps 756 mmHg 73%
22:00 +13°C° 0 mm 2 mps 756 mmHg 74%
23:00 +12°C° 0 mm 2 mps 756 mmHg 76%

Tomorrow, 18 June, Friday

Time Temperature Precipitation Wind Pressure Humidity
00:00 +10°C° 0 mm 2 mps 757 mmHg 78%
01:00 +10°C° 0 mm 2 mps 757 mmHg 78%
02:00 +9°C° 0 mm 2 mps 758 mmHg 79%
03:00 +9°C° 0 mm 2 mps 758 mmHg 79%
04:00 +10°C° 0 mm 2 mps 758 mmHg 74%
05:00 +12°C° 0 mm 2 mps 759 mmHg 68%
06:00 +14°C° 0 mm 2 mps 759 mmHg 63%
07:00 +15°C° 0 mm 2 mps 759 mmHg 56%
08:00 +17°C° 0 mm 2 mps 759 mmHg 50%
09:00 +18°C° 0 mm 2 mps 759 mmHg 43%
10:00 +19°C° 0 mm 2 mps 759 mmHg 42%
11:00 +20°C° 0 mm 3 mps 759 mmHg 40%
12:00 +21°C° 0 mm 3 mps 759 mmHg 38%
13:00 +21°C° 0 mm 3 mps 759 mmHg 38%
14:00 +23°C° 0 mm 2 mps 759 mmHg 39%
15:00 +23°C° 0 mm 2 mps 759 mmHg 39%
16:00 +23°C° 0 mm 2 mps 759 mmHg 45%
17:00 +22°C° 0 mm 1 mps 758 mmHg 52%
18:00 +22°C° 0 mm 1 mps 758 mmHg 58%
19:00 +20°C° 0 mm 1 mps 758 mmHg 61%
20:00 +18°C° 0 mm 2 mps 758 mmHg 65%
21:00 +16°C° 0 mm 2 mps 758 mmHg 68%
22:00 +15°C° 0 mm 2 mps 758 mmHg 73%
23:00 +15°C° 0 mm 2 mps 758 mmHg 79%

Day after tomorrow, 19 June, Saturday

Time Temperature Precipitation Wind Pressure Humidity
00:00 +14°C° 0 mm 2 mps 758 mmHg 84%
01:00 +14°C° 0 mm 2 mps 758 mmHg 87%
02:00 +14°C° 0 mm 2 mps 758 mmHg 89%
03:00 +13°C° 0 mm 3 mps 758 mmHg 92%
04:00 +14°C° 0 mm 3 mps 758 mmHg 87%
05:00 +16°C° 0 mm 3 mps 758 mmHg 83%
06:00 +17°C° 0 mm 3 mps 758 mmHg 78%
07:00 +20°C° 0 mm 4 mps 758 mmHg 70%
08:00 +22°C° 0 mm 4 mps 757 mmHg 62%
09:00 +25°C° 0 mm 4 mps 757 mmHg 55%
10:00 +27°C° 0 mm 5 mps 757 mmHg 51%
11:00 +28°C° 0 mm 5 mps 756 mmHg 47%
12:00 +29°C° 0 mm 5 mps 756 mmHg 43%
13:00 +29°C° 0 mm 5 mps 756 mmHg 43%
14:00 +30°C° 0 mm 5 mps 755 mmHg 42%
15:00 +30°C° 0 mm 5 mps 755 mmHg 41%
16:00 +29°C° 0 mm 5 mps 755 mmHg 46%
17:00 +29°C° 0 mm 5 mps 755 mmHg 50%
18:00 +28°C° 0 mm 4 mps 755 mmHg 54%
19:00 +26°C° 0 mm 4 mps 755 mmHg 61%
20:00 +24°C° 0 mm 3 mps 755 mmHg 68%
21:00 +22°C° 0 mm 3 mps 755 mmHg 75%
22:00 +21°C° 0 mm 3 mps 755 mmHg 78%
23:00 +20°C° 0 mm 3 mps 755 mmHg 82%

20 June, Sunday

Time Temperature Precipitation Wind Pressure Humidity
00:00 +19°C° 0 mm 3 mps 755 mmHg 86%
01:00 +19°C° 0 mm 3 mps 755 mmHg 89%
02:00 +18°C° 0 mm 2 mps 756 mmHg 92%
03:00 +17°C° 0 mm 2 mps 756 mmHg 96%
04:00 +19°C° 0 mm 2 mps 756 mmHg 90%
05:00 +20°C° 0 mm 3 mps 756 mmHg 84%
06:00 +22°C° 0 mm 3 mps 756 mmHg 78%
07:00 +24°C° 0 mm 3 mps 756 mmHg 71%
08:00 +26°C° 0 mm 3 mps 756 mmHg 64%
09:00 +28°C° 0 mm 3 mps 756 mmHg 57%
10:00 +29°C° 0 mm 3 mps 756 mmHg 52%
11:00 +30°C° 0 mm 3 mps 756 mmHg 47%
12:00 +31°C° 0 mm 3 mps 756 mmHg 42%
13:00 +31°C° 0 mm 3 mps 755 mmHg 41%
14:00 +33°C° 0 mm 3 mps 755 mmHg 40%
15:00 +33°C° 0 mm 3 mps 755 mmHg 39%
16:00 +31°C° 0 mm 2 mps 755 mmHg 45%
17:00 +30°C° 0 mm 2 mps 755 mmHg 51%
18:00 +30°C° 0 mm 1 mps 755 mmHg 57%
19:00 +28°C° 0 mm 1 mps 755 mmHg 63%
20:00 +26°C° 0 mm 2 mps 755 mmHg 69%
21:00 +24°C° 0 mm 2 mps 755 mmHg 74%
22:00 +23°C° 0 mm 2 mps 755 mmHg 78%
23:00 +21°C° 0 mm 2 mps 755 mmHg 81%

21 June, Monday

Time Temperature Precipitation Wind Pressure Humidity
00:00 +20°C° 0 mm 2 mps 755 mmHg 85%
01:00 +20°C° 0 mm 2 mps 755 mmHg 86%
02:00 +19°C° 0 mm 2 mps 755 mmHg 87%
03:00 +19°C° 0 mm 2 mps 755 mmHg 88%
04:00 +20°C° 0 mm 2 mps 755 mmHg 84%
05:00 +21°C° 0 mm 2 mps 756 mmHg 80%
06:00 +23°C° 0 mm 2 mps 756 mmHg 75%
07:00 +25°C° 0 mm 2 mps 756 mmHg 69%
08:00 +26°C° 0 mm 2 mps 755 mmHg 63%
09:00 +27°C° 0 mm 2 mps 755 mmHg 57%
10:00 +28°C° 0 mm 2 mps 755 mmHg 53%
11:00 +29°C° 0 mm 3 mps 755 mmHg 49%
12:00 +30°C° 0 mm 3 mps 755 mmHg 44%
13:00 +31°C° 0 mm 3 mps 755 mmHg 42%
14:00 +31°C° 0 mm 3 mps 754 mmHg 40%
15:00 +31°C° 0 mm 3 mps 754 mmHg 39%
16:00 +30°C° 0 mm 3 mps 754 mmHg 44%
17:00 +29°C° 0 mm 2 mps 754 mmHg 50%
18:00 +29°C° 0 mm 2 mps 754 mmHg 56%
19:00 +26°C° 0 mm 2 mps 754 mmHg 63%
20:00 +24°C° 0 mm 2 mps 754 mmHg 69%
21:00 +21°C° 0 mm 2 mps 754 mmHg 76%
22:00 +21°C° 0 mm 2 mps 754 mmHg 77%
23:00 +20°C° 0 mm 2 mps 754 mmHg 79%

22 June, Tuesday

Time Temperature Precipitation Wind Pressure Humidity
00:00 +20°C° 0 mm 2 mps 754 mmHg 80%
01:00 +19°C° 0.1 mm 2 mps 754 mmHg 83%
02:00 +19°C° 0.1 mm 2 mps 754 mmHg 86%
03:00 +19°C° 0.1 mm 2 mps 754 mmHg 89%
04:00 +20°C° 0.1 mm 2 mps 754 mmHg 87%
05:00 +21°C° 0.1 mm 2 mps 754 mmHg 85%
06:00 +23°C° 0.1 mm 1 mps 754 mmHg 83%
07:00 +25°C° 0 mm 2 mps 754 mmHg 74%
08:00 +26°C° 0 mm 2 mps 754 mmHg 66%
09:00 +28°C° 0 mm 2 mps 754 mmHg 57%
10:00 +29°C° 0 mm 2 mps 754 mmHg 53%
11:00 +30°C° 0 mm 2 mps 754 mmHg 49%
12:00 +31°C° 0 mm 2 mps 754 mmHg 45%
13:00 +31°C° 0 mm 2 mps 754 mmHg 45%
14:00 +33°C° 0 mm 3 mps 754 mmHg 45%
15:00 +33°C° 0 mm 3 mps 754 mmHg 45%
16:00 +30°C° 0.1 mm 2 mps 754 mmHg 53%
17:00 +28°C° 0.1 mm 2 mps 754 mmHg 60%
18:00 +27°C° 0.1 mm 2 mps 754 mmHg 68%
19:00 +25°C° 0.1 mm 1 mps 754 mmHg 71%
20:00 +24°C° 0.1 mm 1 mps 754 mmHg 75%
21:00 +21°C° 0.1 mm 0 mps 754 mmHg 78%
22:00 +22°C° 0 mm 1 mps 754 mmHg 80%
23:00 +22°C° 0 mm 1 mps 754 mmHg 83%
Show more